[[{"header":{"parameterUnit":"m.s-1","parameterCategory":1,"la1":30.2992,"la2":30.254,"lo1":-89.0895,"lo2":-89.0443,"dy":0.0025,"dx":0.0025,"nx":19,"ny":19,"refTime":"2026-03-19T03:00:00:Z","depth":0,"parameterNumber":2,"parameterNumberName":"U-component_of_WINDS"},"data":[0,0,0,0.7333,0.7332,0.7326,0.7326,0.7321,0.7321,0,0,0,0,0,0,0,0,0,0,0,0.7337,0.7338,0.7333,0.7332,0.7326,0.7326,0.7321,0.7321,0,0,0,0,0,0,0,0,0,0,0,0.7337,0.7338,0.7338,0.7332,0.7326,0.7326,0.7321,0.7325,0,0,0,0,0,0,0,0,0,0,0.733,0.7338,0.7338,0.7338,0.7332,0.7326,0.7326,0.7325,0.7324,0.7326,0,0.7329,0,0.7325,0.7321,0.7321,0,0,0,0.733,0.7338,0.7334,0.7338,0.7332,0.7326,0.7328,0.7324,0.7324,0.7326,0.7329,0.7328,0.7325,0.7321,0.7321,0.7339,0.7339,0,0,0.7331,0.7338,0.7334,0.7334,0.7336,0.7328,0.7328,0.7324,0.7328,0.7328,0.7328,0.7325,0.7321,0.7321,0.7339,0.7339,0,0,0,0.7333,0.7338,0.7334,0.7334,0.7333,0.7328,0.7328,0.7328,0.7326,0.7328,0.7325,0.7321,0.7321,0.7338,0.7339,0.7355,0,0,0,0.7333,0.734,0.7334,0.7338,0.7333,0.733,0.7332,0.7326,0.7325,0.7325,0.7321,0.7321,0.7338,0.7339,0.7354,0.7362,0,0,0,0.7337,0.734,0.734,0.7339,0.7336,0.733,0.7328,0.7326,0.7323,0.7321,0.7321,0.7338,0.7338,0.7354,0.7361,0.7369,0,0,0,0.7343,0.7355,0.7341,0.7353,0.7336,0.7341,0.7328,0.733,0.733,0.7321,0.7338,0.7339,0.7353,0.736,0.7368,0.7377,0.7381,0,0,0.7362,0.7358,0.7364,0.7351,0.736,0.7341,0.7352,0.7345,0.7338,0.7339,0.7339,0.7355,0.7361,0.7369,0.7404,0.7407,0,0,0,0.7373,0.7378,0.7378,0.7379,0.7374,0.737,0.736,0.7357,0.7358,0.734,0.7359,0.7363,0.7367,0.7371,0.7374,0.7377,0.7341,0.7341,0.7341,0.7411,0.7401,0.7411,0.7401,0.7401,0.7391,0.739,0.7385,0.7375,0.7379,0.738,0.7402,0.7407,0.741,0.7413,0.7384,0.7384,0.7384,0.7384,0.7439,0.7444,0.743,0.7435,0.7425,0.7428,0.7419,0.7411,0.7413,0.7401,0.7405,0.7393,0.7414,0.7416,0.7385,0.7385,0.7385,0.7385,0.7384,0.7463,0.7464,0.746,0.7459,0.746,0.7448,0.745,0.744,0.7431,0.7434,0.7433,0.7433,0.7432,0.7435,0.7435,0.7435,0.7435,0.7435,0.7435,0.7489,0.7485,0.7488,0.7483,0.7482,0.7479,0.7468,0.7466,0.7462,0.7454,0.7454,0.7444,0.7418,0.7411,0.7436,0.7436,0.7436,0.7436,0.7436,0.7521,0.7512,0.7518,0.7516,0.751,0.751,0.7497,0.7494,0.7491,0.7493,0.7481,0.7464,0.7458,0.7456,0.745,0.7483,0.7483,0.7483,0.7483,0.7542,0.7538,0.7541,0.7539,0.7537,0.7525,0.7531,0.7522,0.7512,0.7509,0.7503,0.7495,0.7493,0.7488,0.7485,0.748,0.752,0.752,0.752,0.7561,0.7556,0.7563,0.7553,0.7547,0.7542,0.7547,0.7545,0.7531,0.7521,0.7507,0.7505,0.7492,0.7489,0.7479,0.7475,0.7465,0,0]},{"header":{"parameterUnit":"m.s-1","parameterCategory":1,"la1":30.2992,"la2":30.254,"lo1":-89.0895,"lo2":-89.0443,"dy":0.0025,"dx":0.0025,"nx":19,"ny":19,"refTime":"2026-03-19T03:00:00:Z","depth":0,"parameterNumber":3,"parameterNumberName":"V-component_of_WINDS"},"data":[0,0,0,0.5092,0.5093,0.5122,0.5122,0.5151,0.5151,0,0,0,0,0,0,0,0,0,0,0,0.5079,0.5079,0.5092,0.5093,0.5122,0.5122,0.5151,0.5151,0,0,0,0,0,0,0,0,0,0,0,0.5079,0.5079,0.5079,0.5093,0.5122,0.5122,0.5151,0.5132,0,0,0,0,0,0,0,0,0,0,0.5104,0.5089,0.5079,0.5079,0.5093,0.5122,0.5122,0.5131,0.5133,0.5135,0,0.5136,0,0.5144,0.5153,0.5153,0,0,0,0.5095,0.5088,0.5099,0.5079,0.5093,0.5122,0.511,0.5132,0.5134,0.5137,0.5137,0.5138,0.5145,0.5153,0.5153,0.5157,0.5157,0,0,0.5093,0.5082,0.5098,0.51,0.5097,0.5109,0.511,0.5134,0.5132,0.5137,0.5139,0.5145,0.5153,0.5153,0.5157,0.5157,0,0,0,0.5087,0.5081,0.5092,0.5099,0.5105,0.5109,0.5111,0.5131,0.5135,0.5139,0.5146,0.5153,0.5154,0.5157,0.5157,0.5141,0,0,0,0.5086,0.5077,0.5091,0.5085,0.5105,0.5119,0.5108,0.5134,0.5137,0.5146,0.5153,0.5154,0.5157,0.5157,0.5142,0.5136,0,0,0,0.5079,0.5076,0.508,0.5084,0.5097,0.5119,0.5125,0.5135,0.5141,0.5153,0.5154,0.5157,0.5157,0.5143,0.5137,0.5133,0,0,0,0.5067,0.5065,0.5079,0.5079,0.5096,0.5109,0.5125,0.5134,0.5143,0.5154,0.5157,0.5157,0.5143,0.5138,0.5134,0.5128,0.5125,0,0,0.5058,0.5064,0.5064,0.5078,0.5085,0.5105,0.511,0.5128,0.5139,0.515,0.515,0.5142,0.5137,0.5133,0.5111,0.5108,0,0,0,0.5058,0.5058,0.5062,0.5071,0.5085,0.5096,0.5115,0.5122,0.5132,0.5143,0.514,0.5137,0.5136,0.5134,0.5131,0.513,0.5156,0.5156,0.5156,0.5029,0.5043,0.5045,0.5063,0.5071,0.509,0.5097,0.5109,0.5121,0.512,0.5123,0.5108,0.5105,0.5103,0.5102,0.5121,0.5121,0.5121,0.5121,0.5017,0.502,0.5036,0.5043,0.5058,0.5064,0.5082,0.509,0.5097,0.5107,0.5106,0.5115,0.51,0.51,0.512,0.512,0.5121,0.5121,0.5121,0.5,0.5004,0.5012,0.5025,0.5033,0.505,0.5056,0.5069,0.5081,0.5081,0.5085,0.5086,0.5087,0.5082,0.5082,0.5082,0.5082,0.5082,0.5082,0.4979,0.4989,0.4993,0.5007,0.5014,0.5024,0.5042,0.5049,0.5059,0.5068,0.5068,0.5079,0.5096,0.51,0.5081,0.5081,0.5081,0.5081,0.5081,0.4961,0.4967,0.4974,0.498,0.4998,0.5004,0.5021,0.5032,0.5039,0.5041,0.5053,0.5063,0.5069,0.5071,0.5074,0.505,0.505,0.505,0.505,0.4947,0.4951,0.496,0.497,0.4981,0.4996,0.5001,0.5014,0.5029,0.5034,0.5039,0.5045,0.5046,0.5051,0.5054,0.5057,0.5029,0.5029,0.5029,0.4937,0.4943,0.4945,0.4961,0.4975,0.4986,0.4992,0.5,0.5018,0.5028,0.5038,0.5039,0.5048,0.505,0.506,0.5063,0.507,0,0]}]]